EHI
0 0 1 2 2 2 2 2 2 1 1 0 0 0 0 0 0 0 0 0 0 0 0 0 0 0 0 0 0 0 0 0 0 0 0 0 0 0 0 0 0 0 0
0 0 0 1 1 1 1 1 1 1 1 0 0 0 0 0 0 0 0 0 0 0 0 0 0 0 0 0 0 0 0 0 0 0 0 0 0 0 0 0 0 0 0
0 0 1 1 1 1 1 0 0 1 1 0 0 0 0 0 0 0 0 0 0 1 1 0 0 0 0 0 0 0 0 0 0 0 0 0 0 0 0 0 0 0 0
0 1 2 2 2 2 1 1 1 0 0 0 1 1 1 1 1 0 0 0 0 1 2 1 0 0 0 0 0 0 0 0 0 0 0 0 0 0 0 0 0 0 0
0 1 2 2 1 1 1 2 3 2 1 1 1 2 3 3 2 1 1 1 0 1 2 2 0 0 0 0 0 0 0 0 0 0 0 0 0 0 0 0 0 0 0
0 0 1 1 1 1 1 1 2 3 3 1 2 3 4 4 3 1 2 1 1 1 2 1 1 0 0 0 0 0 0 0 0 0 0 0 0 0 0 0 0 0 0
0 0 1 1 1 1 1 0 1 2 2 2 2 3 5 6 4 3 2 1 1 1 1 1 2 1 0 0 0 0 0 0 0 0 0 0 0 0 0 0 0 0 0
0 0 1 1 0 1 1 0 0 0 1 1 1 2 5 7 6 5 3 1 1 1 1 2 2 1 0 0 0 0 0 0 0 0 0 0 0 0 0 0 0 0 0
0 0 0 0 0 0 0 0 0 0 0 0 0 0 2 4 4 4 3 2 2 2 2 1 1 1 1 0 0 0 1 0 0 0 0 0 0 0 0 0 0 0 0
0 0 0 0 0 0 0 0 0 0 0 0 0 0 0 1 1 1 1 2 2 3 1 1 1 2 2 1 0 0 0 0 0 0 0 0 0 0 0 0 0 0 0
0 0 0 0 0 0 0 0 0 0 0 0 0 0 0 0 0 0 1 2 2 2 1 0 1 2 2 1 0 0 0 0 0 0 0 0 0 0 0 0 0 0 0
0 0 0 0 0 0 0 0 0 0 0 0 0 0 0 0 0 0 0 1 1 1 0 0 0 1 1 0 0 0 0 0 0 0 0 0 0 0 0 0 0 0 0
0 0 0 0 0 0 0 0 0 0 0 0 0 0 0 0 0 0 0 0 0 0 0 0 0 0 0 0 0 0 0 0 0 0 0 0 0 0 0 0 0 0 0
0 0 0 0 0 0 0 0 0 0 0 0 0 0 0 0 0 0 0 0 0 0 0 0 1 0 0 0 0 0 0 0 0 0 0 0 0 0 0 0 0 0 0
0 0 0 0 0 0 0 0 0 0 0 0 0 0 0 0 0 0 0 0 0 0 0 0 0 0 0 0 0 0 0 0 0 0 0 0 0 0 0 0 0 0 0
0 0 0 0 0 0 0 0 0 0 0 0 0 0 0 0 0 0 0 0 0 0 0 0 0 0 0 0 0 0 0 0 0 0 0 0 0 0 0 0 0 0 0
0 0 0 0 0 0 0 0 0 0 0 0 0 0 0 0 0 0 0 0 0 0 0 0 0 0 0 0 0 0 0 0 0 0 0 0 0 0 0 0 0 0 0
0 0 0 0 0 0 0 0 0 0 0 0 0 0 0 0 0 0 0 0 0 0 0 0 0 0 0 0 0 0 0 0 0 0 0 0 0 0 0 0 0 0 0
0 0 0 0 0 0 0 0 0 0 0 0 0 0 0 0 0 0 0 0 0 0 0 0 0 0 0 0 0 0 0 0 0 0 0 0 0 0 0 0 0 0 0
0 0 0 0 0 0 0 0 0 0 0 0 0 0 0 0 0 0 0 0 0 0 0 0 0 0 0 0 0 0 0 0 0 0 0 0 0 0 0 0 0 0 0
0 0 0 0 0 0 0 0 0 0 0 0 0 0 0 0 0 0 0 0 0 0 0 0 0 0 0 0 0 0 0 0 0 0 0 0 0 0 0 0 0 0 0
0 0 0 0 0 0 0 0 0 0 0 0 0 0 0 0 0 0 0 0 0 0 0 0 0 0 0 0 0 0 0 0 0 0 0 0 0 0 0 0 0 0 0
0 0 0 0 0 0 0 0 0 0 0 0 0 0 0 0 0 0 0 0 0 0 0 0 0 0 0 0 0 0 0 0 0 0 0 0 0 0 0 0 0 0 0
0 0 0 0 0 0 0 0 0 0 0 0 0 0 0 0 0 0 0 0 0 0 0 0 0 0 0 0 0 0 0 0 0 0 0 0 0 0 0 0 0 0 0
0 0 0 0 0 0 0 0 0 0 0 0 0 0 0 0 0 0 0 0 0 0 0 0 0 0 0 0 0 0 0 0 0 0 0 0 0 0 0 0 0 0 0
0 0 0 0 0 0 0 0 0 0 0 0 0 0 0 0 0 0 0 0 0 0 0 0 0 0 0 0 0 0 0 0 0 0 0 0 0 0 0 0 0 0 0
Wind_Speed
5 5 7 5 5 5 5 5 5 5 4 4 4 4 4 4 4 4 3 3 2 2 1 1 2 2 2 3 3 3 2 3 3 3 3 3 3 3 3 3 2 5 7
5 6 7 4 4 4 4 4 4 4 4 3 3 3 3 3 3 3 3 3 2 2 1 1 0 1 1 1 1 1 2 2 2 2 1 3 4 3 3 2 3 5 5
6 6 6 4 3 2 2 2 2 2 2 2 3 3 3 4 4 4 4 3 3 3 3 2 2 1 1 1 0 1 1 1 0 0 4 3 5 4 2 2 3 4 4
6 5 5 6 4 3 3 2 1 1 2 2 3 4 4 5 5 5 4 4 4 4 4 3 3 3 2 2 1 1 1 1 1 4 5 1 1 6 2 2 3 3 4
6 6 7 6 5 4 4 4 4 3 3 4 4 4 5 5 5 5 5 5 4 4 4 5 5 5 4 3 2 2 2 2 3 8 2 0 0 5 1 1 2 3 4
7 7 8 7 6 6 5 5 4 4 4 4 5 4 5 5 6 6 7 6 5 5 5 5 6 6 5 4 4 4 3 4 7 4 2 2 1 4 1 1 2 3 4
7 6 7 7 6 6 5 4 3 3 3 4 4 4 4 5 6 7 7 7 6 6 6 6 7 7 7 6 5 4 4 5 8 4 3 3 1 2 2 2 2 3 3
6 6 6 7 6 6 5 4 3 2 2 3 4 4 4 4 5 5 6 6 7 7 7 7 9 8 8 8 6 5 5 8 7 5 4 3 2 1 3 3 3 3 4
5 5 4 4 4 4 5 5 5 4 4 3 4 4 3 4 4 5 5 5 6 7 8 8 9 9 8 8 7 6 6 6 8 5 5 2 3 3 4 3 4 4 4
4 3 3 3 4 4 3 5 5 5 5 4 3 3 3 4 4 4 6 5 6 6 7 7 8 8 8 7 6 6 6 7 8 6 5 2 3 4 5 4 4 5 5
3 2 3 3 4 4 4 4 3 2 2 4 2 1 5 5 4 4 3 3 5 5 6 6 7 8 8 6 5 5 6 6 5 6 4 3 2 5 5 5 5 5 5
2 2 2 2 3 3 4 3 3 4 3 4 4 4 4 4 3 5 2 4 5 5 6 6 6 7 7 4 5 6 5 7 6 5 3 3 4 6 6 6 6 6 6
2 1 2 2 3 4 3 4 4 3 3 4 5 5 4 4 3 4 3 3 4 5 5 5 6 5 5 5 4 5 5 5 4 5 2 3 5 6 6 5 6 6 7
1 1 2 2 3 4 5 4 4 4 4 4 4 5 4 3 4 4 3 3 3 3 3 4 3 4 6 7 7 6 6 5 5 4 2 3 5 6 6 6 6 7 7
2 1 1 2 4 4 4 4 4 4 5 4 4 4 5 4 4 4 4 3 4 3 3 3 4 4 5 6 6 6 7 7 7 6 3 5 5 6 6 6 6 7 8
3 2 1 1 3 4 4 4 4 4 3 4 4 5 5 4 4 4 5 4 4 3 3 3 4 3 4 4 5 5 6 7 7 6 5 5 7 6 6 7 6 7 8
3 2 1 1 2 4 5 5 4 4 4 4 4 5 5 5 5 5 5 4 4 4 4 4 4 3 3 4 5 5 5 6 6 6 6 5 5 8 7 7 8 8 8
3 2 2 1 2 3 4 5 4 3 4 4 4 4 6 6 6 5 4 4 4 4 4 3 3 3 3 4 4 4 4 4 6 6 6 6 4 4 7 8 7 8 9
4 3 2 0 1 2 3 3 3 3 3 3 3 4 5 6 6 5 4 5 5 3 3 4 2 3 3 4 4 4 4 4 5 5 7 6 5 5 4 7 8 8 7
5 4 2 2 1 2 2 2 2 2 3 3 3 4 6 5 6 6 4 5 5 4 3 3 3 3 3 3 4 4 3 3 3 4 5 5 5 6 5 5 6 8 8
6 5 3 2 1 1 1 2 3 2 3 2 3 5 5 5 6 5 5 5 5 4 4 5 3 3 2 2 3 3 4 4 3 3 4 4 5 4 5 6 5 5 6
7 5 4 2 1 0 1 2 2 3 3 3 3 3 4 5 5 5 5 4 4 4 4 4 3 3 2 2 2 3 3 4 3 3 3 4 4 3 4 6 6 6 5
8 7 4 3 2 1 0 1 2 1 2 1 2 2 4 5 4 5 6 5 5 4 4 4 4 3 3 2 2 2 2 2 1 2 3 3 3 2 3 4 6 6 6
9 7 6 4 3 2 2 2 3 3 3 3 3 3 3 3 4 4 5 5 5 4 4 4 4 3 3 2 1 2 3 2 2 1 2 2 2 3 3 3 4 4 5
9 7 6 5 4 3 2 1 3 3 2 2 3 3 3 3 3 4 5 5 4 4 4 4 4 4 3 3 2 2 2 2 3 2 1 1 1 2 2 3 3 4 4
9 8 7 6 5 4 4 4 4 3 3 3 3 3 3 2 2 3 4 4 4 4 4 4 4 3 3 3 3 2 2 2 2 2 3 2 2 1 2 2 3 3 3
Wind_Direction
153 150 129 162 160 158 158 156 152 151 153 155 158 162 165 169 171 170 169 168 164 157 143 123 114 104 97 94 86 80 81 80 79 77 80 82 78 86 94 107 186 123 102
137 139 126 154 155 157 160 164 166 168 171 175 183 182 190 196 196 192 197 202 201 200 206 216 188 150 123 99 81 63 63 66 67 67 86 152 120 96 103 95 10 79 108
125 129 136 133 137 143 152 170 184 198 204 210 219 221 224 230 229 226 227 230 232 234 234 240 250 250 227 211 42 8 17 13 22 6 252 219 132 124 118 116 105 112 118
111 117 108 99 93 81 68 49 1 290 273 262 256 252 250 249 247 245 247 249 251 255 255 255 257 252 252 257 262 291 304 306 290 259 238 174 137 112 121 142 146 140 133
97 98 86 77 77 73 65 53 37 11 340 314 292 279 274 268 266 263 264 263 264 263 261 262 263 257 253 256 260 269 284 284 271 257 271 283 82 105 133 154 162 161 155
95 89 84 67 64 62 61 58 47 18 353 335 317 298 295 290 281 274 270 265 263 267 269 272 273 269 262 259 262 265 275 280 257 251 250 237 183 115 188 197 188 175 173
99 95 87 67 57 49 46 47 46 19 347 328 314 311 298 285 274 274 273 273 269 268 268 266 268 266 262 257 254 262 274 279 269 263 242 235 115 113 232 220 205 198 190
96 92 91 85 58 41 30 25 20 12 346 328 318 319 315 303 293 284 279 273 269 269 268 265 260 254 253 253 249 249 258 272 256 255 247 240 97 223 242 227 215 207 196
98 87 75 74 79 71 51 30 16 5 355 338 326 319 318 312 297 287 277 272 265 262 264 261 258 258 251 252 251 249 249 263 275 260 252 237 115 248 250 231 220 213 200
107 90 72 51 33 23 44 54 18 8 3 347 335 331 311 271 258 265 265 270 266 261 260 262 259 258 251 250 254 258 256 253 252 253 251 175 127 255 254 236 221 213 206
112 88 68 44 38 21 1 32 355 352 3 295 260 266 273 277 279 250 270 281 265 262 258 258 265 262 250 237 241 253 251 250 251 259 254 88 223 258 258 238 219 212 207
128 98 63 31 24 10 357 359 341 335 343 320 325 319 299 299 291 288 224 250 259 257 247 238 246 249 242 229 216 223 237 245 254 249 227 128 251 258 258 238 215 213 209
122 87 36 13 16 0 356 350 347 338 337 324 333 320 302 296 285 274 278 233 238 237 246 229 233 229 227 228 226 221 234 244 249 255 221 153 251 257 256 236 215 209 210
164 61 32 358 3 2 357 351 334 337 337 336 338 330 319 312 302 306 292 304 287 265 258 257 249 240 233 232 228 226 229 236 239 250 232 172 254 257 250 230 217 211 209
187 187 60 348 354 358 1 335 336 345 340 340 337 325 328 315 313 312 298 298 286 287 267 263 258 249 244 233 232 230 232 235 239 240 220 187 239 253 250 230 219 215 209
199 189 139 333 356 344 343 339 352 344 341 335 344 340 336 329 324 313 303 301 301 295 291 276 265 255 247 238 234 228 236 240 239 237 243 205 206 226 239 228 219 221 209
193 187 148 317 337 344 346 347 342 337 342 348 355 345 345 339 329 319 314 312 313 302 288 276 271 263 247 236 236 232 231 240 240 239 238 238 209 196 211 219 215 221 211
194 184 152 258 330 353 348 334 335 341 344 346 349 348 348 346 339 330 323 322 317 305 295 283 274 262 257 250 243 239 234 232 240 242 241 229 228 221 192 196 207 214 213
195 192 182 150 332 348 343 324 328 336 340 340 348 357 350 349 342 337 337 329 324 313 302 295 292 281 271 264 254 239 240 237 247 247 243 237 224 226 218 175 193 205 209
195 192 164 158 288 339 320 317 331 325 330 347 352 1 351 344 346 340 330 336 335 323 318 311 300 283 280 270 262 253 241 235 236 249 254 243 236 229 230 207 194 195 199
193 195 173 209 160 309 334 325 336 346 335 345 353 359 346 345 345 344 334 345 338 337 330 322 314 290 279 276 258 245 231 229 236 232 245 250 235 230 230 219 216 206 188
192 192 190 183 176 326 5 338 336 334 325 345 332 340 346 348 347 340 345 337 346 336 333 335 328 308 294 273 275 262 236 198 209 220 223 233 242 221 235 230 220 213 216
193 189 188 181 178 180 237 312 300 288 269 287 341 355 351 345 344 340 343 339 341 334 345 341 335 324 306 291 285 281 272 253 185 183 217 223 231 237 237 244 236 223 216
188 184 186 179 187 178 214 285 320 317 337 352 338 347 336 347 347 341 339 339 341 343 343 336 353 331 310 304 296 292 298 325 289 210 179 200 213 223 236 240 246 241 224
180 180 185 182 191 196 229 252 278 302 333 332 324 333 328 5 353 352 344 342 343 341 347 345 341 336 322 315 313 302 288 275 270 281 243 195 204 215 228 236 247 252 241
178 180 186 192 195 201 223 237 262 298 304 314 322 338 329 350 347 8 345 339 339 343 343 339 331 335 335 328 310 299 296 287 278 272 269 260 258 229 235 225 233 241 245